星链-2473 (STARLINK-2473 )

导读 | 豆包AI

STARLINK-2473是美国SpaceX公司星链星座中的一颗通信卫星,于2021年4月7日发射升空,属于星链V1.0卫星平台,运行在近地轨道。它是SpaceX构建全球低轨卫星互联网的重要组成部分,旨在为全球尤其是偏远地区提供高速低延迟的互联网接入服务,支撑星链网络的覆盖能力与通信服务扩展。

Basic Information
目录编号:
48131
目录名称:
STARLINK-2473
国际标识:
2021-027AR
轨道中心:
EARTH
卫星名称:
星链-2473
卫星全名:
星链-2473 (STARLINK-2473 )
卫星状态:
在轨 (已飞行1849 天)
发射日期:
2021-04-07 UTC
国别 :
美国 (US)
星等 :
--
Orbit Information
数据来源 国际轨道数据 AOE轨道数据
星历时间 2026-04-30T05:46:19+0800
16小时前
查看轨道信息
2026-04-28T08:00:00+0800
2天前
查看轨道信息
半长轴 6853.336km 6853.383km
偏心率 0.0001286 0.000109
轨道倾角 53.161° 53.160°
近地点辐角 84.303° 69.570°
升交点赤经 274.606° 283.469°
平近点角 275.812° 218.672°
近地点 474.317km 474.498km
远地点 476.081km 475.994km
周期 94.105分钟 94.106分钟
每日圈数 15.302055 15.301898
Detailed Information
固有亮度:
5
最大亮度:
2.5
卫星平台:
Starlink V1.0
覆盖范围:
全球
运营商:
太空探索技术公司
运营商所在国:
美国
制造商(研发单位):
太空探索技术公司
制造商所在国:
美国
使用方式:
暂无
Satellite Introduction
星链(Starlink)计划是由太空探索技术公司(SpaceX)提出的一个巨型低轨卫星互联网星座项目,计划在2019年至2024年间在太空搭建由约1.2万颗卫星组成的“星链”网络,其中1584颗将部署在地球上空550千米处的近地轨道,并从2020年开始工作。该卫星仍在工作。
2D Orbit Map
3D Orbit Map
Orbit Altitude Analysis Chart
Orbit Inclination Analysis Chart
Orbit Comprehensive Analysis Chart
View Comprehensive Chart